Weather in Baskakovka

Russia / Smolensk Oblast     54°36′34″N   34°20′47″E
temp.,
°C
wind,
m/s
gust,
m/s
humid.,
%
clouds,
%
prec.,
mm/h
press.,
hPa
HPBL,
m
17 october, sun
sun1700:00+4sw39965 0.0 1016255
03:00+4sw41291100 0.0 1015370
06:00+4sw3129391 0.0 1015343
09:00+5wsw41189100 0.0 1015534
12:00+8wsw4976100 0.0 1015694
15:00+9wsw587095 0.0 10141137
18:00+7wsw497569 0.1 1014565
21:00+6sw41081100 0.2 1014441
18 october, mon
mon1800:00+5wsw4118573 0.1 1014459
03:00+4wsw41190100 0.1 1013405
06:00+4wsw3989100 0.0 1012591
09:00+5wsw41188100 0.1 1012558
12:00+6w4886100 0.3 10121176
15:00+7wnw3767100 0.4 10131108
18:00+4w277753 0.0 1014149
21:00+2w3108210 0.0 1014268
19 october, tue
tue1900:00+1w29885 0.0 1014219
03:000wnw28955 0.0 1015217
06:00+1wnw3993100 0.0 1016444
09:00+3nw488585 0.1 1017761
12:00+4nw5666100 0.1 10191184
15:00+2nw4782100 0.3 1020929
18:00+1nw3891100 0.2 1021527
21:00+2nw389495 0.8 1022712
20 october, wed
wed2000:000nw389695 0.1 1023441
03:00+1nw3680100 0.1 1024856
06:000wnw2579100 0.0 1025247
09:00+1w3480100 0.0 1025397
12:00+3wsw3464100 0.0 1024775
15:00+4sw3558100 0.0 1022835
18:00+3ssw4965100 0.0 1021515
21:00+3ssw51465100 0.0 1018560
21 october, thu
thu2100:00+4ssw61667100 0.0 1015688
03:00+4ssw61787100 0.9 1012659
06:00+5ssw61684100 0.1 1010608
09:00+6ssw61777100 0.1 1008582
12:00+10ssw71867100 0.0 1006726
15:00+12ssw71664100 0.0 1003901
18:00+10sw71579100 0.8 1003840
21:00+11sw61674100 1.4 10031039